Regional Weather Roundup
Issued by NWS

Home | Current Version | Previous Version | Graphics & Text | Print | Product List | Glossary On
Versions: 1 2 3 4 5 6 7 8 9 10 11 12 13 14 15 16 17 18 19 20 21 22 23 24 25 26 27 28 29 30 31 32 33 34 35 36 37 38 39 40 41 42 43 44 45 46 47 48 49 50
000
ASUS43 KMKX 262220
RWRWI

WISCONSIN REGIONAL WEATHER ROUNDUP
NATIONAL WEATHER SERVICE MILWAUKEE/SULLIVAN WI
400 PM CST THU FEB 26 2015

NOTE: "FAIR" INDICATES FEW OR NO CLOUDS BELOW 12,000 FEET WITH NO
SIGNIFICANT WEATHER AND/OR OBSTRUCTIONS TO VISIBILITY.

WIZ001-002-006>008-014>016-023>028-262300-
NORTHWEST WISCONSIN

CITY           SKY/WX    TMP DP  RH WIND       PRES   REMARKS
SUPERIOR ARPT  SUNNY     10  -8  43 NW7       30.41S WCI  -1
ASHLAND        SUNNY      9  -8  46 W9        30.38S WCI  -4
HAYWARD        SUNNY      9 -11  40 VRB6      30.34S WCI  -1
SIREN          SUNNY      9  -9  43 NW9       30.40S WCI  -4
CUMBERLAND     SUNNY      9  -9  43 NW9       30.35S WCI  -5
RICE LAKE      SUNNY      9 -10  40 NW6       30.38S WCI   0
CHETEK         SUNNY      9  -9  44 NW3       30.37R
LADYSMITH      SUNNY     10  -7  47 NW8       30.34S WCI  -3
EAU CLAIRE     SUNNY      9  -8  46 N10       30.38S WCI  -5
MENOMONIE      SUNNY     10  -8  43 W12G17    30.40R WCI  -4
NEW RICHMOND   SUNNY      8  -8  48 NW10      30.41S WCI  -6
OSCEOLA        SUNNY     10  -7  46 W8        30.45S WCI  -3
$$

WIZ003>005-009-010-017-018-262300-
NORTH CENTRAL WISCONSIN

CITY           SKY/WX    TMP DP  RH WIND       PRES   REMARKS
MANITOWISH WTR SUNNY      6  -9  51 N8        30.25S WCI  -7
ARBOR VITAE    SUNNY      9  -6  50 NW6G16    30.25R WCI  -1
WOODRUFF       SUNNY      9  -6  50 NW6G16    30.25R WCI  -1
RHINELANDER    SUNNY      8  -9  45 NW9       30.24S WCI  -5
EAGLE RIVER    SUNNY      7 -10  44 NW6       30.23R WCI  -3
LAND O LAKES   SUNNY      7  -8  51 NW7G17    30.24R WCI  -5
PHILLIPS       MOSUNNY    8  -8  47 NW8       30.27R WCI  -4
TOMAHAWK       MOSUNNY    9  -9  43 CALM      30.26S
MEDFORD        MOSUNNY    9  -7  49 N6        30.27S WCI  -1
MERRILL        SUNNY     11  -8  42 NW7G16    30.26S WCI   0
$$

WIZ029-030-035-036-043>047-262300-
CENTRAL WISCONSIN

CITY           SKY/WX    TMP DP  RH WIND       PRES   REMARKS
WAUSAU         SUNNY     10  -8  44 NW12      30.27R WCI  -5
MOSINEE        MOSUNNY    9  -6  52 W12       30.28S WCI  -6
MARSHFIELD     MOSUNNY    9  -5  53 NW14      30.30S WCI  -7
STEVENS POINT  SUNNY      9  -8  45 NW7       30.30R WCI  -2
WAUPACA        SUNNY     16  -7  35 NW8       30.31S WCI   5
WAUTOMA        SUNNY     12  -6  44 NW13      30.33R WCI  -3
WISC RAPIDS    SUNNY     10  -8  44 NW13      30.33R WCI  -5
CAMP DOUGLAS   MOSUNNY   14  -6  41 N9        30.33R WCI   2
$$

WIZ011>013-019>022-031-037>040-048>050-262300-
NORTHEAST WISCONSIN

CITY           SKY/WX    TMP DP  RH WIND       PRES   REMARKS
ANTIGO         SUNNY      8  -7  49 N7        30.24R WCI  -3
SHAWANO        SUNNY     16  -8  34 N3        30.29S
OCONTO         SUNNY     10  -2  57 SE7       30.31S WCI  -1
STURGEON BAY   SUNNY      9  -6  52 W3        30.32S
GREEN BAY      SUNNY     13  -3  49 NW5       30.31S WCI   5
MANITOWOC      SUNNY     11  -4  51 N8        30.32F WCI  -1
APPLETON       PTSUNNY   12  -8  40 N7        30.30S WCI   2
CLINTONVILLE   SUNNY     14  -8  37 NW10      30.30S WCI   1
OSHKOSH        PTSUNNY   13  -4  46 VRB6      30.31S WCI   4
$$

WIZ032>034-041-042-053>061-262300-
SOUTHWEST WISCONSIN

CITY           SKY/WX    TMP DP  RH WIND       PRES   REMARKS
LA CROSSE      PTSUNNY   12  -4  48 NW12      30.40R WCI  -2
SPARTA         MOSUNNY   12  -5  47 NW13      30.37R WCI  -3
VIROQUA        PTSUNNY   10  -4  53 NW14      30.32R WCI  -6
BOSCOBEL       PTSUNNY   14  -5  42 NW10      30.37R WCI   1
PRAIRIE DU CHI CLOUDY    12  -4  48 N8        30.38S WCI   0
PLATTEVILLE    SUNNY     11  -4  49 NW9       30.32R WCI  -1
$$

WIZ056-057-062-063-064-067-068-262300-
SOUTH CENTRAL WISCONSIN

CITY           SKY/WX    TMP DP  RH WIND       PRES   REMARKS
REEDSBURG      PTSUNNY   12  -5  46 NW10      30.32R WCI  -1
BARABOO/DELLS  PTSUNNY   12  -6  43 NW7       30.31R WCI   1
LONE ROCK      MOSUNNY   13  -5  44 N7        30.35R WCI   3
MINERAL POINT  SUNNY     14  -8  37 NW9       30.30R WCI   2
MADISON        MOSUNNY   13  -6  42 N12       30.31R WCI  -1
MIDDLETON      MOSUNNY   14  -5  42 NW6       30.32R WCI   5
WATERTOWN      SUNNY     11  -4  50 N8        30.31R WCI   0
MONROE         SUNNY     12  -4  48 N9        30.30R WCI   0
JANESVILLE     SUNNY     14  -2  48 N15       30.31R WCI  -1
$$

WIZ051-052-058>065-066-070>072-262300-
SOUTHEAST WISCONSIN

CITY           SKY/WX    TMP DP  RH WIND       PRES   REMARKS
MILWAUKEE      MOSUNNY   14  -6  40 N13       30.30R WCI   0
WAUKESHA       SUNNY     10  -6  48 NW13      30.30R WCI  -5
MILWAUKEE/TIMM SUNNY     12  -8  40 N10       30.30R WCI  -1
RACINE         MOSUNNY   14  -4  44 N12       30.31R WCI   0
BURLINGTON     SUNNY     11  -7  42 NW10      30.30R WCI  -2
KENOSHA        SUNNY     14  -3  47 NW8       30.29R WCI   3
FOND DU LAC    PTSUNNY    9  -3  58 NE9       30.31F WCI  -4
SHEBOYGAN      SUNNY     11  -5  48 N9        30.31R WCI  -2
WEST BEND      SUNNY     12  -4  48 NW10      30.29R WCI  -1
JUNEAU         SUNNY     11  -5  48 N10       30.31S WCI  -3
$$

LSZ147-162-262300-
LAKE SUPERIOR

STATION/POSITION TIME  TEMP    WIND        PRES    WAVE
                       AIR SEA DIR/SP/G            HT/PER
                 (UTC) (F)     (DEG/KT/KT) (MB)    (FT/S)
DEVILS ISLAND    2200    8     240/ 13/ 18 1030.0F
PORT WING        2140    9     230/ 11/ 16 1029.1F
SAXON HARBOR     2100    8     330/  3/  7 1028.8F
$$

LMZ867-665-643>646-262300-
LAKE MICHIGAN

STATION/POSITION TIME  TEMP    WIND        PRES    WAVE
                       AIR SEA DIR/SP/G            HT/PER
                 (UTC) (F)     (DEG/KT/KT) (MB)    (FT/S)
NORTHPORT PIER   2122   10      10/  3/  9 1026.4S
SISTER BAY       2143   17     340/  4/  5   N/A
KEWAUNEE LAKESHO 2100   10     350/  5/ 12 1025.7R
SHEBOYGAN LAKESH 2200   10     340/ 10/ 13 1028.5R
PORT WASHINGTON  2100   13     350/  9/ 15 1027.1R
MILWAUKEE LAKESH 2200   13      10/ 11/ 14   N/A
KENOSHA   LAKESH 2200   15     350/ 11/ 13 1026.1R
$$

TC  - TEMPERATURE IN CELSIUS
VSB - VISIBILITY IN STATUTE MILES
WCI - WIND CHILL INDEX
HX  - HEAT INDEX




USA.gov is the U.S. government's official web portal to all federal, state and local government web resources and services.